Meteo Giornale » Osservazioni meteo India » New Delhi-Safdarjung
ore: 19:30 - Osservazioni Meteo New Delhi-Safdarjung
Lat. 28° 35' N Lon. 77° 12' E Alt. 211 metri s.l.m.
32 °C
Temporale Foschia
Temp. 24 Ore
28 °C
36 °C
Nord-Est
7.4 Km/h
Dew point 26 °C
Umidità 70 %
Visibilità 4 Km
Il sole sorge alle ore 05:59
Il sole tramonta alle ore 18:43
| Data e Ora | Cielo e Fenomeni | T °C | DP °C | Um. % | Pres. hPa | Vis. km | Vento km/h | |
|---|---|---|---|---|---|---|---|---|
| Oggi h: 19:30 | Temporale Foschia | 32 | 26 | 70 | 1005 | 4 | NE 7.4 | |
| Oggi h: 18:30 | Foschia | 34 | 25 | 59 | 1004 | 4 | NE 7.4 | |
| Oggi h: 17:30 | Foschia | 35 | 25 | 56 | 1003 | 4 | N 3.7 | |
| Oggi h: 17:00 | Foschia | 36 | 25 | 53 | 1003 | 5 | N 3.7 | |
| Oggi h: 16:30 | Foschia | 36 | 25 | 53 | 1003 | 5 | N 3.7 | |
| Oggi h: 16:00 | Foschia | 35 | 24 | 53 | 1003 | 5 | N 3.7 | |
| Oggi h: 15:30 | Foschia | 35 | 24 | 53 | 1003 | 5 | O/SO 7.4 | |
| Oggi h: 15:00 | Foschia | 35 | 25 | 56 | 1003 | 5 | N 3.7 | |
| Oggi h: 14:30 | Foschia | 35 | 25 | 56 | 1004 | 5 | N 3.7 | |
| Oggi h: 14:00 | Foschia | 35 | 23 | 49 | 1004 | 5 | N 3.7 | |
| Oggi h: 13:30 | Foschia | 35 | 23 | 49 | 1004 | 5 | N 5.5 | |
| Oggi h: 13:00 | Foschia | 34 | 23 | 52 | 1005 | 5 | SO 7.4 | |
| Oggi h: 12:00 | Foschia | 33 | 23 | 55 | 1005 | 5 | O/SO 9.3 | |
| Oggi h: 11:30 | Foschia | 33 | 23 | 55 | 1005 | 5 | SO 9.3 | |
| Oggi h: 11:00 | Foschia | 32 | 23 | 59 | 1005 | 5 | O/SO 7.4 | |
| Oggi h: 10:30 | Foschia | 32 | 23 | 59 | 1005 | 5 | O/SO 13 | |
| Oggi h: 10:00 | Foschia | 32 | 23 | 59 | 1005 | 5 | O/SO 16.7 | |
| Oggi h: 09:30 | Foschia | 30 | 23 | 66 | 1005 | 5 | SO 16.7 | |
| Oggi h: 09:00 | Foschia | 29 | 23 | 70 | 1005 | 5 | SO 16.7 | |
| Oggi h: 08:00 | Foschia | 29 | 24 | 74 | 1004 | 5 | SO 14.8 | |
| Oggi h: 06:30 | Foschia | 28 | 24 | 78 | 1003 | 4 | SO 14.8 | |
| Oggi h: 05:30 | Foschia | 29 | 24 | 74 | 1003 | 4 | SO 13 | |
| Oggi h: 04:30 | Foschia | 29 | 25 | 79 | 1002 | 4 | SO 7.4 | |
| Oggi h: 03:30 | Foschia | 29 | 25 | 79 | 1002 | 4 | SO 7.4 | |
| Oggi h: 02:30 | Foschia | 29 | 25 | 79 | 1002 | 4 | N 5.5 | |
| Oggi h: 01:30 | Foschia | 30 | 27 | 84 | 1003 | 4 | N 3.7 | |
| Oggi h: 00:30 | Foschia | 30 | 27 | 84 | 1003 | 4 | N 0 | |
| Ieri h: 23:30 | Foschia | 30 | 27 | 84 | 1003 | 4 | N 0 | |
| Ieri h: 22:30 | Poco Nuvoloso | 30 | 27 | 84 | 1003 | 4 | N 0 | |
| Ieri h: 21:30 | Poco Nuvoloso | 32 | 25 | 66 | 1003 | 5 | N 0 | |



